Theta_e
304 304 304 304 304 304 304 304 304 304 304 304 304 304 304 305 304 303 303 303 303 303 304 304 305 306 306 307 307 307 307 307 307 306 305 307 306 310 312 311 313 312 308 306 306 309 311 312 310 308 309 310 310 310 309 310 313 313 316 317 313 313 312 312 314 313 315 316 315 314 314 314 314 316 311 317 331 341 353 351 347 344 343 342 339 339 339 338
304 303 303 304 304 304 304 304 304 304 304 304 304 304 304 305 304 304 304 303 303 303 303 304 304 305 305 306 306 306 306 307 306 305 306 307 309 312 311 309 312 315 312 309 306 310 316 314 308 308 311 311 309 309 310 311 312 313 318 316 311 314 313 313 314 312 314 316 316 316 314 314 313 315 315 313 320 344 362 352 346 347 342 340 339 339 339 338
303 303 303 304 304 304 304 304 304 304 304 304 304 304 304 304 304 305 304 304 304 304 304 304 304 304 304 303 304 305 305 306 306 305 307 310 312 310 307 309 313 313 312 309 306 308 312 312 308 308 311 311 310 310 310 311 312 313 316 313 311 314 313 313 313 312 315 316 316 316 314 313 315 313 315 314 314 342 367 354 349 350 345 342 339 338 338 337
303 303 303 303 303 304 304 304 304 304 304 304 304 304 304 304 304 304 304 304 304 304 304 304 304 304 303 302 302 304 305 305 305 305 310 312 311 308 305 310 314 311 310 310 307 307 311 310 308 309 311 311 311 311 311 311 312 313 313 312 313 314 314 313 313 314 314 315 315 314 314 313 314 315 315 315 316 333 347 348 351 348 345 343 339 338 337 337
303 303 303 303 303 304 304 304 304 304 304 304 304 304 304 304 304 304 304 304 304 304 304 304 304 303 304 303 301 303 305 305 304 307 311 310 309 307 304 309 313 313 312 310 308 308 310 308 308 310 311 311 311 312 312 311 312 314 312 312 314 313 314 315 314 314 312 313 313 313 315 313 314 314 314 313 313 318 322 337 350 345 343 341 338 339 337 337
303 303 303 303 303 304 304 304 304 303 304 304 304 304 304 304 304 304 304 304 304 304 304 303 304 303 304 303 301 303 305 304 305 309 310 309 308 307 304 306 311 315 314 311 308 308 309 308 309 310 311 312 310 311 312 311 312 313 313 313 315 313 313 315 315 313 312 313 313 315 313 312 317 311 318 331 329 328 327 336 347 343 341 341 339 339 337 337
304 303 303 303 303 304 304 304 304 304 303 303 304 304 304 304 304 304 304 304 304 303 304 303 303 303 304 303 301 303 305 304 304 306 308 307 307 306 305 305 307 312 313 312 309 308 309 309 310 311 312 311 310 311 310 311 313 312 313 315 316 315 313 314 314 313 313 313 313 314 312 313 315 309 334 360 350 345 344 342 345 343 341 341 340 339 338 338
303 303 303 303 303 303 303 304 304 304 304 303 304 304 303 303 303 304 303 303 303 303 303 303 303 303 303 302 301 303 304 304 304 304 305 305 305 305 305 305 304 306 309 311 309 308 309 310 310 310 310 311 310 311 310 311 312 311 313 314 316 315 315 315 314 314 313 313 312 311 311 314 313 318 352 366 349 349 349 344 344 342 342 341 340 341 339 338
303 304 303 304 304 304 304 304 304 304 304 304 304 304 303 303 303 303 303 303 303 303 302 303 303 303 303 302 302 302 302 303 303 303 304 304 305 305 305 305 304 304 305 307 307 307 308 309 310 309 309 310 309 311 311 310 310 311 312 313 316 315 316 316 315 316 314 313 312 311 312 313 314 322 347 353 346 349 347 344 345 342 343 342 341 341 339 340
303 303 304 304 304 304 304 304 304 304 304 304 304 304 303 302 302 303 303 303 303 303 302 302 303 303 302 302 302 302 301 301 303 304 305 305 305 305 305 304 304 304 304 305 305 306 307 309 309 308 308 309 309 311 312 310 309 311 312 313 315 315 316 315 315 316 314 314 312 312 313 313 314 311 330 346 346 347 346 345 345 343 344 342 342 341 340 340
303 303 303 303 303 303 303 303 303 303 303 303 304 304 304 303 302 302 302 303 303 303 303 302 302 303 303 302 301 300 300 300 302 303 303 303 303 303 303 303 303 304 304 305 305 305 306 307 307 307 308 309 309 310 312 311 310 311 313 312 313 315 315 314 314 314 313 315 313 314 313 313 316 308 327 349 347 345 348 346 345 345 345 343 342 341 340 340
303 303 303 302 302 302 302 302 302 302 303 303 304 303 304 303 303 303 302 302 303 303 302 302 302 303 302 302 301 300 300 300 300 299 299 299 299 299 301 301 302 303 303 304 305 305 305 306 306 307 308 308 309 310 311 312 311 311 312 311 312 313 314 314 314 314 312 314 314 314 313 314 314 309 332 347 346 347 348 346 346 345 344 343 342 341 340 340
303 302 302 302 302 302 302 302 302 302 303 303 303 303 303 303 303 302 302 302 303 303 302 302 302 303 303 303 302 300 300 299 298 298 299 298 298 299 299 299 300 301 302 304 304 304 305 305 306 306 307 308 310 310 309 311 310 311 311 311 312 312 313 313 314 314 312 314 315 314 314 317 314 316 338 347 346 347 348 347 346 345 344 342 341 340 340 339
302 302 302 302 302 302 302 302 302 303 303 303 303 303 303 302 302 302 302 302 302 302 302 302 302 303 302 302 301 300 299 299 299 300 300 300 299 299 298 298 299 301 303 304 304 304 305 305 305 306 306 307 310 309 309 311 311 311 311 311 312 313 313 313 314 315 313 313 315 313 314 317 315 328 344 347 345 348 350 348 345 344 343 341 341 340 340 339
301 301 302 302 302 301 302 302 303 303 303 303 302 302 302 301 301 301 301 301 302 301 301 301 302 302 301 301 300 299 299 300 301 300 300 301 301 300 301 301 302 304 304 304 304 305 305 305 304 306 307 307 307 308 312 314 312 311 311 311 311 313 316 314 313 315 314 313 313 312 315 316 315 334 346 345 345 349 349 349 346 345 343 340 341 339 339 339
301 301 302 302 302 302 302 302 302 303 303 303 302 302 302 301 300 299 299 300 301 301 301 301 301 302 301 300 299 298 299 300 301 300 301 302 302 302 303 304 305 305 305 305 305 305 305 305 305 306 307 308 307 308 313 315 314 312 310 312 312 311 314 313 311 313 314 313 312 311 317 319 313 330 345 345 345 349 349 350 346 345 343 340 340 339 339 339
301 301 301 302 302 302 302 302 302 302 303 302 302 302 301 300 299 299 299 299 300 301 302 302 301 302 301 300 299 299 299 299 300 300 300 301 301 302 303 304 305 305 305 305 305 305 305 305 306 307 306 307 307 308 312 313 314 314 309 312 312 310 311 311 311 311 312 315 313 311 315 319 319 331 347 346 344 348 349 350 347 345 343 340 340 339 339 340
301 301 302 302 302 302 302 302 302 302 302 302 301 300 299 299 299 300 300 300 300 300 301 301 301 300 300 300 300 300 300 299 299 300 300 300 300 301 303 305 305 306 305 305 305 304 305 305 306 308 307 307 307 308 311 310 313 314 310 312 311 309 311 311 312 311 311 314 313 313 311 317 332 338 347 347 343 348 348 348 347 344 344 341 340 340 339 340
302 302 302 302 301 301 302 302 302 302 302 301 301 299 298 298 299 301 301 300 301 300 300 300 300 299 299 300 300 299 299 299 299 299 300 301 301 302 303 305 305 306 306 306 306 305 306 306 307 309 308 307 306 307 310 310 312 314 311 313 312 311 310 310 313 311 311 312 312 315 310 317 339 343 346 347 343 346 348 346 346 344 344 342 341 340 339 340
302 302 301 301 301 301 302 302 302 302 302 301 300 299 299 299 299 300 300 300 301 301 300 300 300 299 299 299 298 299 299 299 300 300 300 302 303 304 305 305 306 306 306 307 306 305 306 308 307 308 308 306 306 307 310 310 310 311 310 312 311 311 310 310 312 311 311 312 311 314 313 318 340 344 345 346 343 346 347 346 346 344 343 343 342 341 340 339
301 301 301 301 301 301 302 301 301 302 301 301 299 299 300 299 299 299 300 299 299 299 299 299 299 300 299 299 299 299 300 300 300 300 300 300 301 305 307 306 307 307 307 306 307 306 307 308 308 308 308 307 306 308 310 310 309 310 310 311 309 310 311 310 312 311 311 312 311 315 313 318 338 343 342 344 344 346 346 346 346 344 343 343 342 342 340 338
301 301 301 301 301 301 301 301 302 301 301 299 299 299 299 298 299 299 299 299 299 298 299 299 298 299 299 299 299 299 300 300 300 300 300 300 300 305 307 307 308 308 306 306 307 307 307 308 308 308 310 308 308 310 310 310 310 309 309 310 310 311 311 309 310 311 310 311 313 313 311 323 337 339 340 342 344 344 343 344 344 343 343 343 342 342 340 339
301 301 300 300 301 301 301 301 302 301 300 299 298 298 298 299 299 299 299 300 300 299 299 299 299 299 299 299 299 299 300 300 300 300 300 301 302 304 306 307 308 307 306 307 307 307 308 308 308 310 311 308 308 310 310 310 311 309 310 313 312 311 311 311 311 310 311 315 316 313 320 336 339 338 340 339 340 342 340 341 341 340 342 341 341 340 339 340
301 300 300 300 301 301 300 301 301 300 299 299 299 299 299 299 299 299 300 299 299 299 299 299 299 299 299 299 299 299 300 300 300 300 300 302 303 305 307 307 307 306 306 307 306 306 307 308 308 310 310 309 309 309 309 310 311 310 310 314 314 311 311 314 312 311 315 320 321 319 327 339 339 339 341 339 339 341 339 339 340 340 340 339 339 338 338 339
300 300 300 300 300 300 300 301 301 300 299 299 299 299 299 299 299 299 299 299 299 299 299 299 299 299 299 299 299 299 300 300 300 300 300 302 304 306 307 306 306 307 306 306 306 306 307 307 308 309 310 310 309 309 309 309 311 311 310 311 312 312 312 313 312 311 312 316 321 320 321 334 341 340 340 339 340 341 338 339 341 340 340 339 338 338 337 337
300 300 300 300 300 300 300 301 300 300 300 299 299 300 299 300 300 299 298 299 300 299 299 299 299 299 299 299 299 299 300 301 300 300 300 302 303 305 307 306 306 307 306 305 306 306 306 306 307 309 310 310 309 309 309 309 311 312 313 311 310 312 312 311 311 312 314 314 318 316 315 331 341 340 338 338 340 341 339 338 339 339 340 339 338 338 337 337
299 299 300 300 300 300 300 301 301 301 301 300 299 300 300 300 300 298 298 299 300 300 300 299 299 299 299 299 299 299 300 300 299 300 300 301 303 304 306 307 306 306 305 305 307 307 306 306 307 308 309 309 309 308 308 309 310 313 315 310 309 311 310 311 312 315 317 314 314 318 319 326 337 339 337 338 340 341 340 338 338 337 338 338 337 337 337 337
299 299 300 300 300 300 300 301 301 301 300 300 300 300 300 300 299 299 299 299 300 301 302 301 300 300 300 299 299 300 299 299 300 301 300 301 303 303 305 306 306 306 305 306 308 307 306 306 306 308 309 309 309 309 309 309 310 314 312 308 310 310 309 312 313 315 317 312 313 322 321 320 335 342 336 337 341 341 340 338 337 337 336 337 337 337 337 336
299 299 300 300 300 300 300 300 301 301 300 300 300 300 300 300 299 300 300 300 301 302 303 303 302 301 301 300 299 300 299 299 301 301 300 301 303 303 304 305 304 305 305 306 309 307 305 306 306 307 309 309 310 309 308 309 310 312 309 308 309 309 310 313 314 314 314 313 314 321 321 317 331 340 336 339 343 340 340 338 336 336 336 336 336 337 337 336
299 299 299 299 300 300 300 300 301 301 300 300 300 300 300 299 298 299 300 300 302 303 303 303 302 302 303 301 300 300 299 299 300 300 301 302 302 302 303 305 303 304 305 305 308 307 306 306 307 308 309 309 310 308 307 310 310 309 308 308 308 311 313 314 318 316 313 317 319 321 325 319 321 332 335 340 342 339 340 339 338 336 334 335 336 336 337 336
299 299 299 300 300 300 300 300 301 300 300 300 301 300 300 299 298 299 301 301 301 302 303 303 302 302 303 303 302 301 299 299 300 301 302 302 302 302 303 305 304 303 305 305 306 306 305 306 307 309 309 309 310 308 306 309 310 308 309 310 311 313 312 311 316 314 312 320 320 322 330 322 318 330 335 337 339 338 339 339 339 338 335 335 335 336 337 336
298 299 299 300 300 300 300 301 301 301 300 301 301 300 300 300 300 300 301 302 303 303 304 304 303 303 303 304 304 303 300 300 301 301 302 302 302 302 303 305 305 305 305 305 306 306 305 305 306 309 311 309 309 309 306 307 309 308 310 313 311 312 311 310 313 313 315 320 316 319 329 325 326 335 337 337 337 337 338 337 338 338 336 335 335 337 337 336
298 299 300 301 300 300 301 301 301 301 301 301 301 300 301 302 302 301 301 303 304 304 304 304 304 303 303 304 304 304 303 302 301 301 302 303 303 303 303 305 305 306 307 306 305 306 306 305 305 307 310 309 309 309 306 306 307 308 309 310 312 313 312 312 313 311 316 319 313 315 326 326 327 331 334 340 337 334 336 336 337 338 337 336 335 337 338 337
299 300 301 301 301 302 302 302 302 301 301 301 301 301 302 303 303 302 303 304 304 304 304 304 305 304 304 304 303 304 304 303 302 302 302 303 304 304 304 304 304 307 309 307 305 306 307 309 308 307 309 309 309 309 308 307 307 308 309 310 313 316 315 315 316 314 315 317 313 314 322 325 323 322 331 337 333 332 336 340 343 341 337 337 337 337 339 338
299 300 302 302 303 303 302 303 303 301 301 301 301 302 303 303 304 305 305 304 304 305 305 304 305 305 305 304 303 304 305 304 303 304 304 304 305 305 305 304 304 305 307 306 306 306 307 309 309 307 308 309 309 309 308 307 307 306 308 310 310 315 321 320 319 322 321 317 318 320 326 330 325 324 334 338 335 336 341 345 344 341 338 338 339 339 339 339
299 301 303 303 303 304 303 303 302 302 301 301 302 303 303 303 304 305 305 305 305 305 305 305 305 306 305 304 304 305 305 305 303 304 305 304 305 306 305 305 305 304 306 308 310 308 307 309 309 306 308 308 309 310 307 308 310 308 307 309 308 312 323 321 315 322 322 315 320 321 323 331 326 325 338 340 339 341 343 344 342 340 339 338 339 339 339 340
299 300 302 303 303 304 304 303 303 302 301 302 303 304 304 304 305 305 305 305 304 304 306 306 305 305 305 305 306 306 306 306 303 304 306 305 306 306 304 305 305 304 306 308 310 310 309 312 311 307 307 307 309 310 308 308 310 308 306 309 309 309 319 322 318 322 319 316 321 318 323 336 325 323 341 341 340 342 340 342 341 338 340 339 339 340 339 340
298 299 302 303 303 303 304 303 303 302 302 302 303 304 305 306 305 305 305 305 305 304 306 307 305 304 304 306 309 307 307 307 304 304 306 306 307 307 304 305 305 305 306 304 307 311 310 310 309 307 308 307 307 309 309 308 306 308 309 310 311 312 315 317 320 322 316 314 319 314 322 336 323 325 349 345 340 343 339 339 341 339 340 340 339 340 340 340
298 301 304 303 302 303 304 303 303 302 302 303 304 305 306 306 305 305 305 305 305 305 306 307 306 305 306 308 310 308 308 308 306 305 307 306 308 307 304 306 305 305 306 304 307 312 311 311 310 308 308 307 306 309 310 308 306 307 309 307 310 315 315 314 318 321 316 317 323 315 317 330 325 331 357 351 338 340 339 339 340 339 340 340 339 340 340 339
299 304 306 303 302 304 303 302 302 302 303 304 305 305 305 305 305 304 305 306 306 306 306 307 307 307 308 309 311 310 309 309 306 306 307 306 306 306 304 305 305 305 305 304 307 309 309 312 312 308 307 307 307 308 309 309 307 306 310 309 308 310 313 315 316 316 317 324 328 320 319 329 331 334 347 346 338 338 339 340 340 338 339 339 339 339 339 339
300 304 305 302 302 304 302 302 303 304 305 305 305 305 305 305 306 305 306 306 306 306 306 306 307 308 307 308 311 310 310 311 309 306 307 305 306 307 305 305 306 305 305 306 307 308 309 315 317 311 307 307 308 308 308 308 307 308 312 312 311 312 313 313 313 313 316 322 324 324 323 328 331 331 334 337 336 337 338 338 339 339 339 339 339 339 339 339
300 304 304 301 302 303 302 303 304 305 305 305 305 305 305 306 307 306 306 307 307 307 306 306 307 308 306 306 307 307 309 314 312 307 307 305 306 308 306 305 306 304 306 307 307 311 314 316 316 313 310 309 309 309 310 309 308 309 311 310 312 316 315 314 319 321 315 312 317 322 322 325 331 328 330 337 338 337 338 338 338 338 339 339 339 339 339 339
300 302 302 300 301 302 303 303 304 304 304 304 304 304 304 306 307 306 307 308 308 308 308 307 308 308 307 305 306 308 310 313 312 311 311 307 305 306 305 305 306 305 307 306 307 313 314 311 311 311 310 310 308 308 309 308 308 307 309 310 309 314 318 322 331 329 315 313 318 315 317 329 333 326 332 342 342 341 342 340 340 339 339 339 339 339 339 338
299 300 302 301 300 302 303 303 303 303 303 303 303 304 305 307 308 308 309 309 309 308 307 307 306 307 308 307 308 312 313 313 312 314 316 313 310 308 305 305 306 305 306 308 310 312 312 314 316 313 311 310 309 309 307 307 308 308 310 310 307 312 317 320 324 320 313 318 321 316 323 335 331 326 335 343 341 342 343 340 340 339 339 340 339 339 339 338
300 300 301 301 300 302 304 302 302 303 303 303 303 304 306 308 308 309 309 309 309 308 307 308 308 307 308 307 308 312 314 314 314 315 318 319 317 311 305 304 306 306 307 311 313 310 311 316 319 317 314 312 311 311 309 308 309 309 311 310 308 310 312 316 320 316 313 317 318 321 329 332 329 332 339 343 341 341 340 338 340 340 340 340 339 339 339 338
301 302 302 301 301 302 303 302 301 302 303 303 303 305 307 307 307 308 309 309 310 308 308 310 309 308 309 308 311 315 316 316 316 316 317 319 319 315 308 305 306 306 308 313 315 314 313 315 319 320 318 315 314 314 311 310 310 310 310 310 309 308 310 317 322 320 320 319 319 329 334 326 330 338 339 341 341 339 338 339 339 340 340 340 339 339 338 338
300 301 301 301 301 302 303 302 302 302 302 302 304 306 307 307 307 308 309 309 309 308 309 311 310 310 311 311 314 318 318 318 319 319 317 317 319 318 313 307 306 307 310 312 315 316 314 314 318 319 317 316 316 314 311 311 311 311 311 310 310 311 312 315 319 323 326 320 319 336 340 329 332 341 338 339 339 336 337 339 338 340 340 339 339 339 338 338
300 300 300 300 301 302 302 302 302 302 301 302 305 306 306 306 307 308 307 308 309 309 310 311 310 310 310 310 313 317 317 318 319 319 317 317 320 321 315 309 309 312 312 311 314 319 318 317 317 316 315 316 313 310 311 312 311 312 313 312 312 316 315 312 320 329 326 320 327 341 341 337 340 342 335 334 336 336 335 337 338 339 340 340 339 339 339 338
299 299 299 299 300 300 301 301 301 302 302 303 306 306 306 306 307 307 306 308 309 309 310 312 311 311 309 310 313 315 314 316 318 318 317 317 320 321 314 310 313 316 313 310 313 318 319 321 319 315 317 318 314 310 310 311 312 312 314 314 315 319 317 314 325 331 323 325 339 341 341 346 344 337 333 332 334 337 336 337 339 339 339 339 339 339 339 338
298 299 299 299 299 299 300 301 302 302 302 304 306 306 305 305 306 306 305 307 309 310 311 312 312 312 310 311 313 313 311 312 315 316 315 316 319 321 317 315 318 322 318 313 312 313 314 318 323 325 324 319 316 314 310 311 315 314 315 317 315 316 317 319 328 330 325 331 340 334 339 352 344 333 333 333 333 337 338 338 339 339 339 339 339 339 338 337
297 298 298 299 299 300 301 302 302 303 304 305 305 305 305 305 305 305 305 307 308 310 310 311 312 312 311 312 313 312 311 311 312 312 311 313 316 317 317 316 317 320 323 321 314 312 314 316 321 329 327 317 318 318 313 314 318 315 316 318 316 317 320 323 328 331 331 338 340 331 336 351 345 332 332 333 334 338 338 338 339 339 339 339 338 339 338 336
297 297 298 299 300 300 301 301 301 304 305 305 304 304 304 304 304 305 307 308 308 309 309 310 312 313 313 314 314 313 312 311 311 311 310 311 312 312 314 315 314 316 320 322 316 313 319 321 320 327 326 316 316 318 315 315 316 314 318 323 321 321 322 320 322 327 331 339 343 337 337 345 339 332 336 337 335 337 336 336 339 339 338 339 337 338 337 336
Wind_Speed
17 17 17 17 17 17 17 18 17 18 18 18 19 18 19 18 19 18 18 18 19 20 20 20 20 20 20 20 21 22 21 22 23 21 16 18 18 14 15 18 16 15 15 14 11 6 6 5 3 4 5 3 2 1 2 2 2 2 2 5 8 6 6 7 8 7 6 6 6 6 8 10 7 4 2 2 6 3 6 7 5 8 9 11 19 28 31 30
17 17 17 17 18 18 18 18 18 18 18 18 19 19 19 19 19 19 18 18 19 20 20 21 21 21 21 20 22 22 21 23 21 19 22 17 11 10 13 18 16 11 13 15 13 6 2 1 1 5 5 2 2 2 3 2 3 4 3 5 9 5 5 8 10 7 6 6 6 6 7 8 8 4 2 0 2 2 7 5 7 11 10 14 21 27 29 30
17 17 17 17 18 18 18 18 18 18 18 18 18 18 19 19 19 19 19 19 19 19 19 20 21 21 21 22 22 21 21 20 15 15 14 4 7 11 15 18 14 11 15 17 13 7 5 2 0 3 5 3 2 3 4 3 3 3 3 6 8 4 5 5 8 8 6 7 7 7 4 5 6 4 2 3 2 2 5 5 7 10 10 12 15 20 25 26
17 17 17 18 18 18 18 18 18 18 18 18 18 18 19 19 19 20 20 19 19 19 19 19 20 20 20 22 21 21 19 13 9 7 7 8 10 16 19 20 12 9 17 17 12 6 5 3 2 2 4 3 2 3 4 5 3 3 4 6 5 4 5 5 6 8 7 6 6 4 4 3 4 4 3 3 2 3 4 6 9 13 15 16 15 17 21 21
17 17 18 18 17 18 18 18 19 18 19 18 18 18 18 19 18 19 20 19 20 19 19 18 18 19 20 21 20 20 13 6 2 10 13 8 15 21 20 21 15 3 13 15 12 8 4 3 1 3 3 3 4 3 4 6 3 2 5 4 3 4 4 6 5 6 5 4 2 2 4 4 3 2 2 5 3 5 4 6 12 18 19 20 19 17 17 16
17 17 17 18 18 18 18 18 19 19 19 19 19 19 18 19 18 18 19 19 20 19 19 18 17 18 18 20 19 14 4 3 4 7 10 7 19 23 19 17 16 4 8 11 11 8 4 3 3 3 2 2 6 6 4 6 5 3 4 3 4 4 4 4 3 5 4 4 4 4 4 2 1 2 1 5 5 6 5 7 14 17 18 21 19 17 17 15
17 18 17 18 18 18 18 18 19 19 19 20 20 20 19 19 18 18 18 18 19 19 20 18 17 17 15 19 16 6 2 9 15 11 12 13 22 22 16 13 14 8 4 7 6 5 5 5 4 4 4 2 5 6 4 5 6 7 4 2 4 5 5 4 2 5 5 6 7 3 0 1 3 3 1 3 3 5 3 7 13 14 15 18 17 16 17 16
18 18 18 18 18 19 19 19 18 18 19 19 19 20 20 19 18 19 18 18 18 18 19 18 17 16 14 15 10 4 6 17 24 18 18 21 22 17 13 11 13 14 4 2 3 3 4 6 6 4 4 4 4 5 5 4 5 9 7 2 2 4 5 6 4 4 4 5 5 2 3 4 5 2 3 2 5 1 6 10 12 13 14 14 14 15 15 14
19 19 19 19 19 19 20 19 19 19 19 19 19 18 19 19 19 19 19 18 18 17 18 18 17 15 13 9 4 6 8 13 18 17 18 19 15 11 12 12 15 17 11 8 8 3 3 5 6 4 4 4 4 5 6 6 5 7 7 4 3 3 5 6 7 6 4 4 2 3 6 6 5 3 2 3 3 3 10 13 13 14 14 13 12 13 13 14
20 19 20 20 20 20 20 20 20 21 21 20 19 19 19 19 19 19 19 19 18 18 18 17 16 14 11 4 2 6 6 5 6 4 8 11 12 12 13 15 16 15 11 11 10 3 3 4 5 3 3 2 3 4 4 7 5 4 7 7 7 6 6 3 5 7 5 4 4 5 6 6 5 5 2 3 3 7 12 13 14 14 14 13 11 10 11 12
20 20 21 21 21 21 21 21 22 22 22 22 21 20 19 19 20 20 20 19 19 18 18 17 16 14 10 2 3 8 4 3 5 6 9 14 18 19 19 19 16 12 9 8 8 6 5 6 4 1 2 2 2 3 5 6 3 2 7 6 8 9 8 5 4 4 3 3 7 8 6 6 2 3 6 6 7 10 14 14 14 13 12 13 12 10 9 9
20 20 21 21 22 22 22 23 23 23 23 22 21 20 20 20 20 21 21 20 19 18 17 16 14 14 11 6 11 19 14 12 18 23 25 25 27 25 22 22 18 14 9 5 9 10 7 8 6 3 3 1 3 2 5 6 3 2 5 3 6 7 10 12 8 5 4 3 6 8 4 6 4 4 7 11 11 11 14 14 14 12 10 11 11 10 9 9
21 21 22 23 23 23 23 24 24 25 24 23 22 21 20 21 21 23 23 21 19 18 17 15 14 14 10 7 11 20 24 25 29 32 31 28 28 25 21 22 20 17 13 10 12 12 8 7 5 5 4 1 3 2 3 2 4 4 4 3 3 3 7 11 10 7 6 4 5 8 3 6 6 6 6 13 14 13 12 12 13 11 9 9 9 9 8 10
22 23 23 23 24 24 25 25 25 25 24 24 23 22 22 22 23 25 25 23 20 19 16 13 13 12 9 9 13 18 22 24 28 27 23 21 21 21 19 18 18 17 15 15 15 13 11 10 5 5 4 2 4 3 4 3 2 4 3 3 4 4 5 7 10 9 7 5 6 8 4 6 6 6 8 14 15 15 14 12 12 11 9 8 8 9 8 9
23 24 23 23 25 26 26 25 25 25 24 24 24 23 23 24 26 27 26 25 21 18 15 12 11 8 7 11 16 18 14 12 17 18 15 15 13 13 12 8 8 9 10 13 14 10 9 7 3 2 3 3 4 4 3 3 1 3 5 4 5 5 4 4 7 12 11 5 6 9 4 5 7 6 10 13 14 16 18 15 11 10 10 8 7 8 7 7
23 23 23 23 25 26 26 25 25 25 23 23 24 23 24 27 28 26 26 23 20 17 12 8 9 8 5 8 11 11 8 8 11 11 10 11 8 9 9 5 5 7 7 10 12 10 7 4 2 3 2 3 4 1 2 1 2 3 6 5 6 7 3 3 4 9 14 7 5 8 5 3 5 6 10 10 12 15 16 14 11 10 10 9 7 7 8 7
23 23 24 23 24 25 25 25 26 24 23 23 23 24 27 26 22 19 18 13 11 11 10 6 6 8 7 9 11 7 5 7 8 10 13 14 12 12 9 4 6 7 6 7 9 7 4 4 3 3 3 2 4 5 3 5 6 3 3 3 3 7 5 3 4 4 13 12 7 7 6 5 4 5 11 10 11 12 13 14 12 12 11 10 9 9 9 8
24 24 23 23 24 25 24 25 26 24 24 24 24 26 25 18 13 10 5 4 4 3 6 6 4 4 6 9 11 7 3 5 11 16 19 19 14 15 11 5 4 3 4 3 5 5 3 3 3 3 3 4 5 7 7 7 6 4 4 4 2 5 7 8 4 3 10 12 10 7 8 8 2 4 10 10 11 12 14 14 11 12 13 12 9 9 9 7
24 23 23 24 25 25 25 25 25 24 25 25 26 24 16 9 8 4 6 9 7 4 1 4 6 4 4 5 8 7 6 11 16 16 15 12 7 10 10 6 3 2 4 3 4 6 4 2 4 5 6 8 8 9 8 3 7 8 6 5 5 5 6 8 5 5 9 10 8 8 8 8 3 6 10 10 10 10 12 11 7 8 10 11 9 7 7 7
23 24 25 26 26 26 26 26 25 24 24 25 24 16 7 5 6 2 3 2 3 5 4 5 8 9 10 9 8 8 11 14 11 7 8 8 4 3 5 4 2 2 4 5 4 4 5 4 6 7 6 8 8 8 7 2 5 9 7 5 6 6 5 7 6 6 7 7 7 8 8 8 7 9 11 11 9 7 9 9 8 9 8 10 11 8 8 8
24 25 25 25 26 26 27 27 25 24 24 22 15 6 2 1 2 3 3 5 10 12 12 12 13 15 16 17 17 11 10 9 5 8 17 16 6 1 2 4 4 4 4 5 3 2 5 7 8 6 5 8 8 7 8 4 3 5 7 6 5 5 5 6 7 6 6 5 5 7 9 9 8 9 9 10 9 8 11 11 11 13 12 10 11 11 9 6
25 25 25 26 27 27 29 28 24 24 22 14 5 2 1 2 3 6 5 6 11 13 15 15 15 16 18 23 24 13 5 6 7 11 15 10 6 4 3 5 4 4 5 5 3 3 6 7 6 6 5 8 9 7 9 8 1 2 3 6 5 4 4 4 5 5 6 5 3 7 9 6 4 4 6 9 10 8 9 10 9 12 14 12 11 10 9 8
26 27 28 28 27 28 29 26 25 24 14 6 5 4 4 2 4 6 3 6 11 9 11 13 13 12 13 17 17 9 6 7 7 9 7 7 7 7 5 5 5 5 6 8 7 6 6 5 7 7 5 8 9 9 10 8 3 2 2 5 5 4 3 3 4 4 6 3 3 7 6 1 2 1 3 5 5 3 4 7 5 8 11 11 10 8 8 11
27 28 28 28 28 28 27 27 24 16 6 8 12 7 3 4 4 4 1 4 8 5 7 11 10 8 12 13 9 10 8 6 5 7 7 10 5 4 6 5 6 5 7 10 8 5 4 4 8 9 6 8 9 10 12 8 4 2 3 4 4 4 6 5 2 4 4 2 4 8 3 1 1 3 4 3 1 2 4 6 5 6 8 6 7 7 8 10
28 27 27 28 27 27 28 25 15 6 7 13 10 3 3 6 5 3 1 2 6 4 4 6 5 5 11 10 8 11 5 5 8 7 5 10 7 4 4 3 4 6 8 8 6 4 4 4 8 11 7 7 8 9 12 9 5 3 3 6 5 6 7 4 4 5 5 1 2 6 4 4 3 6 7 4 4 5 5 7 9 8 7 7 8 9 9 9
29 28 27 27 25 27 25 13 6 7 12 10 3 2 6 7 5 1 1 2 5 3 1 1 2 3 5 5 7 7 2 3 11 13 10 10 9 4 3 3 3 5 6 7 4 2 3 5 5 11 10 7 8 7 10 11 7 3 5 7 6 5 4 3 5 5 5 4 4 4 6 3 3 6 9 7 8 9 6 8 11 9 8 8 8 9 9 9
30 28 28 26 25 25 18 8 10 12 8 4 1 4 6 6 4 2 1 2 4 1 1 1 2 2 3 6 8 5 2 2 3 11 14 11 7 2 4 5 3 4 5 5 4 2 6 7 4 9 11 8 7 5 8 11 8 3 6 7 6 4 3 3 6 4 3 3 2 2 5 3 3 6 8 9 8 8 7 8 10 11 12 11 9 9 10 10
30 29 28 27 26 23 17 14 13 9 7 4 3 4 5 4 3 2 2 2 1 1 1 2 1 2 2 5 9 5 3 1 3 4 12 14 9 1 3 6 5 6 7 7 5 2 7 11 6 7 9 7 6 5 8 11 7 5 6 7 7 6 4 4 6 3 1 2 3 4 3 4 4 4 3 8 9 9 11 11 12 13 15 14 11 10 10 10
30 30 28 28 28 23 16 12 11 9 7 3 1 3 3 2 1 1 2 1 1 1 1 0 2 3 1 4 7 8 5 2 3 1 8 12 10 3 1 5 6 6 7 7 5 2 5 10 8 7 7 6 6 5 9 11 6 5 5 6 3 2 4 4 4 2 2 1 5 6 4 4 4 4 2 6 8 10 10 11 13 13 14 14 12 11 11 10
32 32 30 29 27 21 11 9 14 13 7 3 3 3 1 0 0 1 1 2 1 1 0 1 2 2 1 3 3 6 5 3 3 1 6 5 6 4 0 3 5 4 4 5 5 5 2 5 7 6 4 5 7 5 7 11 7 5 7 5 4 3 3 3 2 3 2 3 5 7 6 5 3 4 3 6 8 11 11 10 11 12 14 14 12 11 11 10
35 34 31 28 24 16 7 7 10 8 6 5 4 1 1 0 1 1 3 2 1 1 0 2 1 1 2 3 2 3 3 4 4 2 5 4 3 3 1 2 3 4 4 4 5 7 5 2 4 5 5 6 9 7 6 9 9 6 5 5 4 2 3 4 3 2 3 5 6 6 6 5 3 5 5 8 10 13 14 12 14 15 15 14 12 11 11 10
36 35 32 25 18 12 10 5 1 3 7 7 3 2 0 1 1 3 3 1 2 2 1 1 2 2 3 3 1 2 3 3 3 2 3 4 5 5 5 5 3 5 4 4 5 6 6 4 3 5 8 9 10 8 5 6 9 7 5 6 6 2 1 2 1 1 4 5 4 6 6 3 5 6 7 12 12 13 14 14 15 16 15 13 12 11 10 9
37 35 28 18 9 10 13 9 4 5 5 6 3 1 1 1 2 4 3 1 2 2 1 2 4 4 4 1 0 4 3 1 4 3 1 4 7 6 7 5 3 4 4 5 6 4 3 3 4 6 8 9 10 10 7 6 9 9 7 6 6 4 4 5 3 1 3 3 2 3 4 2 4 4 7 13 14 14 15 13 9 8 11 12 11 11 10 10
37 31 22 11 6 9 11 9 8 9 5 4 2 0 2 3 4 4 4 3 3 2 2 3 4 4 4 3 1 4 2 1 2 4 2 4 7 6 5 5 4 2 4 5 4 4 4 2 6 7 6 9 11 9 7 6 7 7 4 5 5 4 5 4 3 3 3 1 2 1 3 4 3 4 6 10 10 9 8 6 5 7 8 9 9 11 11 11
34 23 13 7 4 5 8 9 10 9 7 3 1 2 3 3 3 3 3 3 2 2 4 4 2 1 3 2 2 3 2 1 2 2 2 4 6 6 5 5 7 3 4 6 3 4 4 3 6 7 5 11 11 5 6 8 5 4 3 6 4 4 5 3 3 5 4 2 0 1 3 3 4 4 3 3 4 4 7 6 8 9 9 10 10 11 11 10
29 17 8 9 9 7 4 9 11 10 8 2 1 3 3 3 3 2 2 3 2 2 5 4 1 2 1 0 1 2 1 3 4 3 2 4 6 7 6 5 6 5 4 5 3 4 4 3 5 8 6 11 13 7 6 7 6 3 4 6 5 4 6 5 2 1 3 4 2 2 3 3 2 3 4 2 3 5 8 9 10 11 12 13 11 10 11 10
25 14 6 11 14 9 4 8 14 11 6 1 2 4 3 3 4 2 3 4 2 1 3 2 1 2 1 1 1 3 3 3 5 4 2 4 4 5 5 3 5 7 7 5 2 4 5 2 6 10 8 9 12 11 6 5 6 6 5 6 3 4 3 4 2 2 4 4 3 1 4 2 0 2 4 3 5 5 6 9 10 11 13 13 12 11 11 11
19 10 4 12 17 10 3 8 14 9 2 1 5 7 3 3 3 2 4 5 2 1 2 0 1 0 2 2 2 4 3 2 6 4 2 3 3 4 6 3 4 8 7 5 2 2 4 1 4 9 10 6 8 11 7 5 4 5 6 5 4 4 2 1 3 1 3 4 2 1 2 3 4 4 2 4 8 9 8 8 10 13 14 13 12 12 12 11
12 5 2 11 17 9 4 11 11 4 1 2 4 5 2 4 6 5 6 6 2 1 2 1 1 1 1 2 2 4 3 2 5 3 2 3 2 4 7 3 4 7 6 6 3 2 2 3 1 6 8 6 5 8 9 6 3 2 6 5 2 4 4 2 3 3 3 3 3 1 1 3 5 6 6 10 12 12 11 9 11 15 15 13 13 13 13 12
6 2 2 11 15 2 9 9 5 1 2 3 4 4 3 5 7 7 7 5 2 2 2 2 2 2 1 1 1 3 3 2 3 2 2 2 2 4 7 6 4 5 6 6 4 1 1 2 3 3 4 7 6 7 10 10 5 4 6 6 3 2 3 3 1 1 3 3 3 3 1 5 6 5 9 12 12 14 15 15 14 13 13 14 13 14 13 12
4 2 2 10 10 4 8 2 1 1 2 3 3 4 6 6 5 7 7 3 2 2 2 2 3 2 0 1 2 2 2 2 3 2 1 2 2 2 6 9 5 4 6 4 3 2 0 1 3 4 4 6 7 5 6 9 8 5 4 5 5 4 4 4 2 1 2 2 3 4 3 7 6 3 5 7 9 12 13 13 11 12 14 14 13 14 13 12
2 1 2 10 9 3 3 2 3 1 2 4 5 6 9 8 5 6 7 2 2 2 1 2 3 2 1 1 2 0 2 1 1 2 1 3 6 4 7 11 7 5 5 3 2 4 3 2 2 3 4 5 5 4 8 10 8 5 3 4 5 4 5 6 4 3 1 1 1 4 2 6 5 3 3 3 6 7 5 4 4 7 11 12 13 13 12 12
2 2 5 10 9 2 1 3 3 3 3 5 7 8 8 6 4 5 5 3 2 1 1 1 2 2 2 2 2 2 3 1 0 2 1 2 6 7 7 10 9 5 4 3 2 3 3 1 1 1 1 1 2 3 6 9 8 4 4 4 5 5 5 6 5 4 4 2 1 2 2 5 5 5 2 4 6 6 6 7 7 7 8 10 12 12 11 11
3 3 4 10 11 1 2 2 4 5 6 7 8 8 6 3 3 5 7 5 3 2 1 2 1 2 2 2 3 3 3 1 0 3 2 0 3 5 7 10 9 5 4 4 3 3 3 1 2 4 4 3 4 4 4 6 7 6 5 4 6 7 6 5 2 2 2 4 4 4 4 6 5 4 1 5 7 7 7 8 9 10 9 10 12 11 10 10
4 1 3 8 11 4 3 0 2 4 8 10 9 9 7 4 3 5 6 6 3 0 1 3 3 3 2 0 1 4 3 3 1 1 1 0 2 2 6 11 11 5 5 5 3 3 3 2 3 5 6 6 5 5 4 5 6 4 5 7 7 8 9 5 2 3 2 3 4 5 5 6 4 2 3 5 7 7 7 9 9 9 10 11 11 11 10 9
2 1 2 5 5 4 1 1 0 3 7 8 7 7 8 9 7 4 3 3 3 3 2 3 2 1 2 2 2 2 3 1 1 1 1 1 3 1 2 8 10 8 9 9 4 3 1 1 3 5 6 7 7 5 2 5 6 5 7 10 8 8 9 6 5 4 4 3 3 6 6 4 5 1 3 4 7 7 7 9 10 10 12 12 11 11 10 9
1 1 3 4 3 2 2 1 2 4 7 6 5 5 9 11 9 5 2 2 4 6 3 2 4 5 4 5 3 2 5 4 2 3 2 2 3 2 3 5 6 8 11 9 4 2 1 2 3 6 7 7 6 7 7 8 8 7 9 11 9 8 9 7 5 5 5 6 4 8 4 4 7 6 7 6 7 8 8 10 11 11 12 12 11 11 11 11
2 1 1 3 3 3 3 4 6 8 10 7 3 4 10 12 9 7 5 3 5 6 3 1 6 10 9 8 3 2 4 4 4 3 3 3 3 3 4 5 2 6 6 4 2 3 3 3 4 6 6 5 3 10 13 10 7 8 11 12 9 9 11 11 8 7 7 7 6 7 7 7 8 4 6 6 5 6 7 8 9 10 11 11 12 13 12 12
3 1 1 2 3 5 6 8 10 10 10 8 4 4 9 11 10 8 4 4 5 4 3 3 7 10 10 8 3 3 3 3 3 3 3 4 4 3 5 3 3 5 3 3 2 2 2 3 4 5 2 3 2 8 14 12 8 7 9 11 11 11 12 11 8 6 5 4 5 4 7 8 7 3 3 3 3 5 6 7 9 12 12 12 14 14 12 12
3 2 3 3 3 6 6 7 7 7 6 6 5 5 8 9 11 10 6 4 5 5 4 5 8 8 7 7 4 2 2 1 2 3 3 5 4 3 4 2 2 5 4 2 1 1 1 3 2 3 4 5 5 2 11 13 10 7 4 5 9 9 7 5 4 4 3 2 2 4 2 6 6 3 3 3 5 7 8 9 11 12 12 13 14 13 13 12
5 5 5 4 4 5 5 4 4 4 4 4 5 7 8 9 11 12 7 4 4 5 6 8 11 9 5 5 4 1 4 2 3 5 4 3 2 2 1 1 1 4 5 2 1 0 1 2 0 4 5 2 4 2 9 11 10 8 4 4 7 8 6 4 3 5 6 4 3 5 1 5 5 2 4 5 7 9 9 11 11 10 12 14 14 13 14 13
8 6 5 4 4 4 4 5 5 3 2 4 6 9 9 9 12 11 6 2 3 6 6 8 11 7 4 5 3 3 5 5 6 7 5 5 5 3 4 4 2 2 3 2 2 1 2 2 1 3 4 1 4 2 9 10 9 4 2 6 7 4 5 4 1 2 5 6 7 4 5 6 4 5 5 6 8 9 9 9 10 11 12 12 13 13 14 14
Wind_Direction
351 350 348 348 346 345 344 341 340 337 336 334 333 333 329 329 328 327 327 327 328 326 325 326 329 330 328 329 328 325 323 316 311 307 290 279 292 315 323 325 319 291 271 271 269 262 288 294 239 176 128 115 156 195 198 181 123 149 147 212 226 199 195 178 172 185 168 203 204 190 188 183 224 268 229 30 45 77 57 34 42 45 54 90 110 124 133 139
347 346 345 344 342 341 340 338 338 336 335 333 333 331 329 329 327 326 325 324 325 325 327 328 330 331 330 330 328 330 329 315 307 289 278 287 316 329 326 331 323 276 239 242 243 212 181 297 175 137 122 142 195 188 197 194 171 180 150 209 226 189 180 179 172 182 168 189 205 206 187 176 203 216 194 192 336 103 81 50 75 79 80 99 115 128 137 143
344 343 342 341 339 338 337 336 335 334 334 333 331 329 328 328 326 325 323 323 322 322 325 327 330 332 330 328 328 335 330 314 302 277 272 333 27 346 340 342 322 254 221 221 226 209 194 234 317 122 126 172 197 174 185 205 199 183 156 215 232 184 184 200 173 187 200 188 206 233 186 169 206 187 185 177 170 163 137 138 117 115 125 125 130 138 144 149
342 340 340 339 338 336 335 335 333 332 331 330 329 328 327 326 325 323 323 323 320 320 321 324 329 331 332 328 328 335 330 310 287 224 161 78 18 350 354 359 343 238 213 211 212 204 203 236 286 93 126 187 206 165 182 210 201 172 195 212 218 161 187 235 197 194 211 196 201 215 152 186 225 175 182 165 150 270 207 183 157 149 148 146 149 150 153 156
341 339 339 338 337 336 336 334 332 331 328 327 326 325 325 325 324 322 322 322 320 320 318 322 325 329 334 328 328 336 333 308 292 148 137 55 3 349 355 8 8 249 200 200 204 199 200 205 127 81 109 176 181 179 203 209 182 186 221 206 178 151 191 239 220 208 206 187 192 150 164 217 245 191 167 144 183 246 217 189 167 159 157 156 156 155 158 159
341 340 338 336 336 335 335 334 332 332 329 327 324 323 323 322 322 321 321 320 320 319 317 320 321 326 331 327 329 336 329 266 308 157 164 1 352 342 351 11 14 15 184 189 195 187 182 162 128 135 145 167 194 203 211 200 188 223 235 194 182 163 193 233 202 215 191 160 203 185 195 208 104 265 234 122 183 237 230 193 169 162 161 156 154 157 162 165
340 339 337 335 334 333 333 332 332 331 329 327 325 323 322 319 320 319 319 319 318 317 316 317 318 322 327 332 333 329 222 257 272 237 228 309 333 333 344 2 18 34 175 197 199 171 154 157 159 156 145 181 213 212 219 205 205 228 242 203 206 184 205 236 186 221 204 191 218 195 202 171 154 231 8 74 262 266 229 170 158 154 155 153 155 163 165 167
340 338 336 334 331 330 329 329 329 329 327 326 323 322 320 319 319 316 316 316 316 315 313 313 314 318 325 337 339 293 248 253 265 268 270 298 316 325 336 341 6 17 8 257 264 200 159 155 170 160 156 211 205 190 201 209 228 227 223 224 236 208 217 238 248 255 231 223 233 227 264 233 193 181 72 357 299 307 122 134 142 145 151 156 164 168 165 166
338 337 335 333 331 330 328 326 327 325 323 322 320 318 316 317 317 315 314 312 313 312 310 310 308 312 318 330 340 285 259 257 277 287 283 295 307 314 331 334 347 0 3 343 330 269 200 168 184 172 164 214 190 179 190 193 230 219 201 214 242 245 241 235 242 249 243 239 199 204 253 258 228 181 63 306 287 124 127 134 143 150 157 164 173 172 167 168
336 336 335 334 333 331 329 327 325 322 320 319 317 315 313 314 313 311 311 309 309 307 307 305 301 306 306 304 309 271 258 277 303 298 275 290 303 303 312 322 333 347 350 336 332 298 223 199 201 159 129 227 188 197 200 190 222 195 179 208 219 240 262 215 218 240 243 233 169 180 245 263 238 200 218 260 188 143 135 141 153 158 164 169 173 175 172 174
336 336 335 334 333 331 329 326 324 322 321 320 318 315 313 311 310 307 306 304 303 303 304 302 298 297 289 252 218 245 252 291 283 304 297 292 299 298 298 306 318 330 330 323 309 285 265 256 257 138 151 227 192 224 233 208 244 204 162 202 219 226 252 232 226 250 240 234 183 173 235 259 235 210 206 183 166 156 145 150 162 166 170 170 171 174 179 182
335 334 332 332 331 330 328 326 326 324 323 322 318 315 312 308 305 302 300 300 298 298 299 297 293 289 278 250 239 244 255 277 290 303 300 292 291 291 292 294 297 299 295 287 284 284 276 272 278 254 231 197 167 214 247 214 207 220 149 168 220 213 238 236 237 229 172 227 183 154 242 259 212 225 198 165 164 163 152 155 165 172 173 169 173 175 181 183
332 332 332 331 331 330 329 328 327 326 324 322 318 315 311 307 303 299 298 297 294 292 294 293 287 285 275 251 250 254 265 279 291 296 295 291 285 283 287 286 287 285 272 249 258 272 270 274 274 252 279 335 196 215 300 236 160 194 162 153 203 204 237 225 217 210 178 202 158 144 244 255 235 250 193 162 163 160 154 160 165 172 175 172 177 179 185 184
332 333 333 332 331 330 329 328 327 326 323 320 318 316 311 308 304 301 299 295 291 289 288 289 284 281 264 255 273 276 278 283 283 285 294 296 283 282 283 278 281 278 261 245 249 265 265 265 268 258 279 255 261 330 355 342 139 159 153 175 188 189 251 223 193 186 190 210 151 154 243 254 261 266 188 168 165 162 162 168 168 172 176 176 180 182 189 189
335 335 334 332 331 330 328 327 326 324 321 318 317 315 311 309 307 305 302 295 290 285 281 281 272 268 270 268 278 284 285 280 274 281 304 302 279 276 281 271 279 273 252 240 242 257 254 245 229 237 272 221 250 328 1 337 334 160 172 195 184 191 268 263 193 178 188 212 148 165 233 261 258 244 190 176 169 167 168 171 170 171 175 176 179 182 188 191
336 335 333 332 330 329 328 326 326 323 319 318 316 314 312 312 311 309 303 292 282 272 267 269 248 233 254 275 283 291 278 252 269 299 321 305 269 259 273 270 269 259 243 236 235 243 227 196 176 183 233 209 188 160 62 26 271 226 198 188 178 191 236 281 239 186 182 188 176 187 208 257 256 208 184 181 176 172 169 170 170 172 178 179 180 182 185 187
336 333 332 331 329 329 329 326 325 322 319 318 316 314 315 317 317 312 306 296 276 249 224 220 219 215 241 275 288 291 259 249 283 315 312 299 277 263 265 255 258 244 223 224 222 223 196 173 191 178 191 220 160 141 153 203 214 232 187 159 167 175 174 203 267 210 179 185 198 195 200 237 276 183 176 179 182 177 172 172 172 176 181 183 184 187 189 188
334 332 331 330 328 328 328 325 324 322 320 318 316 317 320 326 332 329 351 77 86 131 202 214 195 214 244 252 264 271 260 293 313 312 302 299 278 254 238 213 251 233 172 197 198 180 168 181 174 149 178 200 183 169 185 199 180 157 154 148 139 155 174 193 221 219 177 186 195 171 197 236 295 170 182 180 179 181 183 182 177 178 181 184 188 191 192 194
331 331 331 328 327 328 326 324 324 321 320 319 318 322 328 345 353 5 95 100 94 89 178 209 186 217 279 247 237 253 281 301 307 300 294 305 280 232 217 209 242 203 159 164 180 177 167 160 167 180 194 196 194 181 189 188 143 154 159 152 153 152 188 199 208 214 168 175 195 165 187 220 190 184 195 188 182 183 189 186 178 179 180 186 194 196 195 201
331 330 329 328 327 327 325 325 323 320 322 319 320 332 352 8 357 8 98 105 204 214 221 205 199 233 279 287 267 277 298 299 296 276 273 299 308 184 180 180 172 197 188 162 175 181 158 182 206 200 194 188 186 176 193 228 120 146 149 156 166 152 192 207 200 208 159 159 199 172 179 205 191 191 195 188 181 178 182 181 181 185 186 191 196 198 198 203
331 330 329 327 327 326 326 325 321 320 321 315 319 353 48 10 340 314 318 258 233 228 239 235 219 231 248 259 268 288 314 301 264 262 275 277 275 238 181 162 151 192 187 146 152 158 170 205 211 194 183 172 167 165 193 234 60 124 149 164 180 163 190 207 198 202 168 165 204 174 177 203 205 197 189 180 179 186 187 184 186 190 193 195 197 199 196 192
331 330 329 327 326 327 327 325 320 320 319 309 321 46 222 238 259 284 306 281 254 228 235 243 233 240 243 248 261 272 297 280 269 276 273 253 207 198 181 158 168 180 157 146 162 172 201 216 186 175 173 153 153 157 187 214 183 76 130 151 180 197 189 203 214 200 170 178 213 179 178 205 233 195 179 185 191 198 194 193 196 191 192 194 196 197 188 179
331 331 329 327 327 327 326 323 319 318 314 300 310 297 271 300 288 283 280 290 285 236 220 235 231 241 247 251 256 237 226 246 262 273 233 160 165 185 164 161 174 158 157 182 189 177 204 209 159 166 158 141 153 159 178 207 195 99 103 136 177 218 176 178 224 188 154 156 159 161 167 196 1 95 186 211 206 191 185 204 221 203 200 200 195 193 186 184
330 329 327 326 326 328 326 321 318 312 301 311 309 289 278 322 301 290 256 267 287 260 213 222 220 230 242 248 227 194 214 211 206 262 207 161 170 180 165 165 157 167 187 192 191 187 231 221 158 162 161 147 155 163 174 196 206 176 163 158 172 198 184 177 187 146 110 60 115 123 110 297 172 168 207 214 173 170 172 192 219 216 210 202 195 198 196 193
328 327 325 325 327 329 326 320 316 309 312 314 307 290 327 325 301 281 309 272 275 266 218 214 203 225 237 231 186 178 211 224 206 237 207 173 176 163 173 172 157 194 193 174 181 199 254 251 161 163 176 160 159 170 178 182 185 192 214 209 188 172 181 167 122 121 112 165 207 132 134 262 223 196 211 187 183 206 186 193 210 210 199 191 196 202 197 194
326 325 324 325 326 328 329 323 309 318 320 309 286 334 330 323 312 235 130 295 274 257 174 196 163 207 229 191 167 159 140 252 215 212 222 207 192 172 172 175 173 199 171 152 184 199 233 254 173 169 177 163 166 176 182 176 162 188 229 213 190 158 169 135 107 122 153 202 242 169 164 243 260 218 215 196 202 209 195 203 211 209 206 202 202 202 197 195
325 323 323 323 325 329 327 308 300 308 306 292 322 344 330 320 292 199 108 318 280 228 149 195 138 179 235 175 168 157 147 288 213 197 212 218 216 206 173 177 163 177 152 149 197 176 183 217 221 179 174 170 179 180 182 171 154 220 234 186 177 182 195 131 103 122 184 195 266 214 148 154 243 234 209 192 204 213 209 217 213 211 214 212 207 201 197 196
323 323 322 321 321 321 309 289 291 284 264 284 341 337 330 319 261 185 48 318 279 71 149 218 194 226 252 166 172 196 235 9 30 196 194 196 207 146 148 185 159 161 167 170 196 168 173 201 211 182 181 184 180 168 166 156 153 230 220 169 179 197 175 115 97 117 141 129 228 247 166 162 246 275 189 176 196 212 216 220 217 213 213 212 209 202 196 193
323 321 320 320 318 316 308 281 261 256 269 307 7 312 314 290 257 81 70 280 247 103 95 137 277 272 182 144 187 232 272 7 8 210 166 178 198 183 145 190 155 160 178 174 188 190 179 196 192 175 190 186 162 158 159 154 166 205 169 139 146 165 135 109 109 111 58 100 220 224 183 166 262 287 151 165 196 212 217 220 219 214 211 211 208 202 192 185
322 319 319 320 315 314 315 278 260 263 269 258 253 286 329 218 339 48 195 266 292 152 74 269 278 310 148 150 206 234 253 304 316 175 150 171 199 204 244 145 134 145 171 163 189 233 237 189 182 175 189 171 153 163 167 164 167 145 128 109 72 58 78 84 71 83 89 266 244 216 183 157 236 266 185 174 193 199 206 217 217 211 210 209 205 198 188 181
321 319 319 317 308 300 292 281 278 261 223 218 233 178 73 137 138 199 224 254 287 186 235 245 241 337 219 197 220 215 210 267 295 185 169 164 160 195 202 127 121 120 139 146 188 240 269 217 189 169 162 160 153 169 188 176 168 141 129 126 112 73 39 48 16 60 175 245 256 212 171 139 213 252 210 203 205 197 199 209 210 205 203 201 198 192 183 180
322 320 319 314 300 267 231 234 286 170 177 179 165 123 95 305 206 230 241 310 280 224 183 238 213 240 223 188 169 198 183 219 240 201 181 167 159 191 195 183 157 135 162 169 166 224 255 245 226 165 165 173 161 165 190 188 180 168 154 138 136 156 113 151 229 178 193 244 259 188 152 134 238 241 206 207 217 208 203 211 210 201 194 190 189 185 178 175
324 322 321 318 294 239 226 228 199 171 166 158 145 116 185 254 254 226 222 291 257 212 182 244 234 227 212 160 162 214 203 210 195 174 154 162 164 191 200 194 168 130 157 166 152 180 212 239 232 183 173 183 174 170 179 189 188 182 174 159 154 155 161 192 213 121 183 237 275 195 170 196 263 263 204 200 215 215 208 213 204 180 177 180 180 175 170 172
327 328 326 319 281 246 238 229 213 211 200 159 145 210 228 250 260 232 228 239 239 260 273 259 265 246 207 199 218 198 186 304 194 161 149 164 169 192 202 201 204 117 108 147 156 167 167 211 218 194 174 179 186 185 163 147 170 181 151 130 146 153 159 185 190 158 179 219 324 262 193 178 193 242 219 208 227 221 199 185 132 127 152 162 168 171 170 173
331 337 341 345 334 281 249 214 203 204 194 163 168 246 249 256 263 268 267 255 251 298 290 274 282 232 195 211 266 235 203 226 212 171 181 187 178 186 191 202 211 186 132 162 177 165 173 253 218 194 180 175 182 190 138 123 155 191 116 125 176 181 145 127 163 171 159 128 71 207 210 213 203 243 276 245 237 183 149 137 129 138 148 152 165 173 173 175
338 353 17 20 18 358 283 209 191 182 181 184 294 241 246 253 251 268 292 290 283 303 310 305 3 94 137 234 247 238 61 100 173 189 200 183 179 184 188 199 192 179 168 164 151 159 166 272 213 179 191 186 176 177 173 156 160 167 148 170 188 149 121 109 155 171 103 144 234 211 211 286 295 279 328 30 142 148 144 148 149 151 152 156 169 174 174 176
341 351 16 8 3 356 322 205 186 175 174 192 262 252 256 247 243 242 275 297 283 264 309 309 93 99 165 157 148 150 81 89 175 195 179 166 186 182 177 194 169 181 201 172 149 177 158 250 221 176 187 205 176 168 198 197 154 145 184 195 154 101 95 103 125 16 71 167 255 211 186 247 238 252 324 71 132 159 163 159 153 154 158 165 172 172 173 173
331 327 335 360 357 346 298 187 173 168 169 242 258 263 261 241 248 239 273 296 286 241 304 254 177 236 168 124 110 134 100 118 177 194 165 157 195 170 163 201 180 186 204 171 147 239 160 168 245 184 180 196 168 165 196 234 193 156 175 183 143 153 200 101 127 129 123 171 247 291 218 230 194 220 253 165 175 182 174 162 158 165 169 170 169 168 168 166
330 324 342 359 354 345 181 163 153 150 253 261 276 278 260 267 285 292 288 295 279 229 301 312 281 282 186 155 145 130 98 136 177 193 177 153 189 176 169 200 199 187 186 158 154 278 152 128 210 202 180 153 151 176 188 205 227 155 156 164 159 159 169 163 147 154 158 174 196 187 315 260 225 222 204 192 191 180 171 174 178 179 176 169 166 167 169 170
343 355 5 357 355 13 158 153 141 134 252 249 280 283 282 288 294 299 295 295 279 239 284 322 335 336 259 244 177 116 112 196 199 187 183 161 150 174 183 195 198 177 161 161 180 257 10 125 152 193 163 142 172 204 190 179 172 160 165 169 170 106 113 160 171 124 136 151 173 153 220 259 246 217 203 201 191 179 178 184 186 181 173 169 167 167 170 173
345 13 347 355 1 150 156 148 227 250 261 265 278 277 294 305 299 302 306 291 219 236 268 295 302 307 275 312 340 74 124 222 216 176 162 166 150 163 201 201 191 153 147 161 204 205 194 131 145 157 158 170 193 195 167 169 165 154 158 170 169 127 109 150 209 291 106 132 176 153 188 257 256 229 223 207 186 189 190 186 184 176 170 169 167 166 169 170
350 35 305 353 357 199 196 315 263 276 284 283 307 292 293 304 297 298 313 302 196 217 233 266 281 291 146 189 302 234 169 226 230 179 151 186 192 198 206 199 186 161 155 154 205 197 167 122 129 169 191 200 198 156 147 161 153 137 157 177 164 134 121 146 188 232 186 122 159 135 176 254 263 269 248 179 167 183 178 151 152 164 166 163 160 163 163 163
16 304 290 353 0 233 235 331 287 317 295 281 305 293 283 292 284 290 313 328 322 311 308 319 307 282 198 205 268 243 184 162 355 210 208 203 204 204 198 189 176 162 161 158 199 195 169 152 115 134 161 351 7 90 142 154 144 151 200 177 156 165 150 146 171 184 179 193 162 129 237 258 281 294 251 144 132 137 132 125 131 145 155 156 157 160 157 157
341 286 277 348 357 32 127 347 317 328 320 308 313 305 289 265 259 298 319 330 341 357 339 318 277 246 226 196 226 244 212 159 292 242 220 205 218 205 186 178 173 171 182 189 195 187 195 200 101 119 129 82 46 75 135 172 171 181 200 171 167 173 142 122 136 127 173 206 157 145 230 253 282 312 44 121 117 120 129 135 140 146 153 156 159 162 157 151
330 280 239 329 348 30 112 175 300 318 322 322 320 319 321 313 293 301 310 310 309 302 259 268 247 241 270 327 224 260 249 164 176 267 211 277 265 206 170 174 178 189 215 216 183 152 197 204 110 131 154 156 163 166 170 182 175 169 169 167 182 178 156 149 124 112 205 220 141 155 223 260 292 10 90 120 125 125 133 139 143 148 153 156 158 162 160 151
359 10 308 317 342 27 77 191 244 318 320 329 324 323 338 336 324 313 295 295 318 337 268 258 308 304 287 334 351 325 337 121 134 60 63 298 291 321 132 165 179 208 231 231 209 118 99 237 163 157 172 177 179 183 158 136 141 156 164 169 188 187 168 148 113 145 195 170 172 215 215 258 288 189 147 156 139 135 141 144 148 151 152 154 155 157 157 153
48 340 343 335 313 342 346 323 10 335 315 321 317 315 334 334 327 333 351 333 332 335 298 248 359 12 350 333 347 4 348 353 41 44 7 298 282 318 51 109 165 226 241 242 238 139 82 286 221 177 190 206 180 158 150 139 143 151 155 170 192 183 159 146 154 195 168 131 225 251 196 213 256 214 187 190 158 152 161 158 156 154 151 152 151 151 150 151
27 293 326 349 301 304 331 317 324 323 311 308 290 307 331 335 337 344 343 321 326 338 342 324 355 5 356 334 333 17 348 2 36 8 335 332 332 2 61 92 191 254 250 252 261 144 143 256 234 180 197 245 200 157 153 145 143 147 152 168 178 164 162 173 194 206 161 149 224 234 171 199 247 231 196 191 159 151 158 153 147 144 145 148 150 151 150 151
13 316 314 356 302 289 291 291 303 313 314 317 321 329 334 332 333 336 324 310 321 336 7 347 339 354 348 327 344 42 358 13 31 338 340 358 346 35 87 125 257 292 283 242 244 132 146 245 218 171 147 347 324 163 153 143 133 138 154 166 166 162 171 180 191 196 176 194 238 190 175 221 247 227 188 180 137 117 121 130 139 146 152 152 153 156 155 154
10 318 323 326 293 288 278 282 303 307 311 327 334 336 335 326 328 332 317 293 308 322 342 332 324 337 334 325 5 63 263 325 352 295 337 4 355 44 85 138 253 320 325 272 228 125 175 245 214 136 90 29 356 142 150 147 136 119 113 136 144 144 145 150 157 155 160 253 326 94 153 258 262 207 155 143 132 124 128 141 149 153 155 154 156 159 157 156
341 296 306 305 298 308 298 298 316 304 309 344 339 332 334 325 325 327 308 246 244 289 310 315 316 322 323 332 6 192 237 256 257 259 274 302 313 3 13 161 132 329 319 317 325 167 184 230 18 77 88 35 346 78 135 133 117 102 82 112 136 139 137 149 173 170 172 173 96 80 126 261 260 187 126 125 134 138 144 152 155 158 159 158 159 161 160 160
339 296 298 298 287 309 316 317 323 311 316 347 336 328 325 315 318 325 315 259 253 274 287 304 308 314 328 328 324 264 259 258 250 249 244 247 258 269 269 257 247 270 275 301 293 220 153 147 132 94 101 2 329 109 127 114 104 110 209 176 157 151 143 141 162 208 189 154 128 144 226 230 195 151 137 142 151 155 158 160 161 161 160 159 159 160 163 166